{"data":{"norad_id":63352,"intl_designator":"2025-061B","name":"LEMUR-2-ESPERANZA","alt_names":[],"object_type":"PAYLOAD","status":"ACTIVE","operator":null,"country":"US","launch_date":"2025-03-26","launch_site_code":"RLLB","launch_vehicle":null,"mission":null,"orbit_class":"UNKNOWN","rcs_meters":null,"size_class":null,"mass_kg":null,"dimensions":null,"purposes":["earth_obs"],"wikipedia_slug":null,"has_3d_model":false,"image_url":null,"decayed_at":null,"tle_current":{"epoch":"2026-09-19T09:18:13.605408Z","epoch_age_seconds":110839,"freshness":"FRESH","line1":"1 63352U 25061B   26262.38765747  .00002348  00000+0  13210-3 0  9994","line2":"2 63352  97.5759 237.2708 0016628 302.9620  57.0013 15.14150359 81848","mean_motion":15.14150359,"eccentricity":0.0016628,"inclination_deg":97.5759,"raan_deg":237.2708,"arg_perigee_deg":302.962,"mean_anomaly_deg":57.0013,"bstar":0.0001321,"rev_number":8184,"period_min":95.102840443866,"perigee_km":512.08306306781,"apogee_km":535.03534396222,"semimajor_km":6901.696203515,"source":"CELESTRAK","updated_at":"2026-09-20T09:00:34.875579Z"}}}